Location: Bluff Heights
(33.7692°N, 118.1592°W)
Time: 18:12:18
(UTC+00:00)

Vanguard 2 Rocket - Visible Passes

Search period start: 27 July 2021 00:00
Search period end: 06 August 2021 00:00
Orbit: 554 x 3325 km, 32.9° (Epoch: 26 July)

Date Brightness Start Highest point End Pass type
(mag) Time Alt. Az. Time Alt. Az. Time Alt. Az.
03 Aug 8.4 12:15:37 10° SSW 12:20:07 19° SSE 12:23:33 10° ESE visible
04 Aug 8.9 11:18:00 13° S 11:20:22 15° SSE 11:23:38 10° ESE visible
05 Aug 9.4 10:21:39 11° SE 10:21:39 11° SE 10:22:45 10° SE visible
05 Aug 7.8 12:28:10 10° SW 12:34:14 32° SSE 12:38:23 10° E visible
